Weather History for EGNS - December, 2012

Change the Weather History Date:

Monday, December 31, 2012

  Actual Average Record
Temperature  
Mean Temperature 46 °F -  
Max Temperature 51 °F 45 °F 53 °F (2006)
Min Temperature 42 °F 38 °F 26 °F (2001)
Degree Days  
Heating Degree Days 18    
Moisture  
Dew Point 42 °F    
Average Humidity 81    
Maximum Humidity 94    
Minimum Humidity 65    
Precipitation  
Precipitation 0.04 in - - ()
Sea Level Pressure  
Sea Level Pressure 29.31 in    
Wind  
Wind Speed 24 mph ()    
Max Wind Speed 38 mph    
Max Gust Speed 55 mph    
Visibility 7.1 miles    
Events Rain    
Averages and records for this station are not official NWS values.
T = Trace of Precipitation, MM = Missing Value Source: Averaged Metar Reports

Daily Weather History Graph

Daily Weather History Graph

Search for Another Location

Airport or City:

Trip Planner

Search our weather history database for the weather conditions in past years. The results will help you decide how hot, cold, wet, or windy it might be!

Date:

Astronomy

Dec. 31, 2012 Rise Set
Actual Time 8:38 AM GMT 4:05 PM GMT
Civil Twilight 7:54 AM GMT 4:49 PM GMT
Nautical Twilight 7:08 AM GMT 5:35 PM GMT
Astronomical Twilight 6:25 AM GMT 6:18 PM GMT
Moon 7:55 PM GMT (12/31) 9:42 AM GMT (12/31)
Length of Visible Light 8h 54m
Length of Day
7h 27m
Waning Gibbous, 91% of the Moon is Illuminated
Dec 31
Waning Gibbous
Jan 5
Last Quarter
Jan 11
New
Jan 18
First Quarter
Jan 27
Full

Hourly Weather History & Observations

Time (GMT) Temp. Windchill Dew Point Humidity Pressure Visibility Wind Dir Wind Speed Gust Speed Precip Events Conditions
12:50 AM 50.0 °F - 48.2 °F 94% 29.42 in 6.2 mi SSW 33.4 mph - N/A   Scattered Clouds
1:50 AM 50.0 °F - 48.2 °F 94% 29.39 in 6.2 mi SSW 34.5 mph 48.3 mph N/A   Mostly Cloudy
2:50 AM 51 °F - 47 °F 83% 29.34 in 7 mi SSW 38.0 mph - -   Overcast
2:50 AM 51.8 °F - 48.2 °F 88% 29.33 in 6.2 mi SSW 38.0 mph 55.2 mph N/A   Overcast
3:50 AM 51.8 °F - 48.2 °F 88% 29.30 in 6.2 mi SSW 36.8 mph 49.5 mph N/A   Overcast
4:50 AM 51.8 °F - 48.2 °F 88% 29.27 in 6.2 mi SSW 34.5 mph 46.0 mph N/A   Overcast
5:50 AM 51 °F - 48 °F 86% 29.24 in 5 mi SSW 38.0 mph - -   Partly Cloudy
5:50 AM 51.8 °F - 48.2 °F 88% 29.24 in 5.0 mi SSW 38.0 mph 54.1 mph N/A   Mostly Cloudy
6:20 AM 50.0 °F - 48.2 °F 94% 29.21 in 6.2 mi SW 32.2 mph - N/A   Mostly Cloudy
6:50 AM 50.0 °F - 48.2 °F 94% 29.21 in 6.2 mi SW 31.1 mph - N/A   Mostly Cloudy
7:20 AM 50.0 °F - 48.2 °F 94% 29.21 in 6.2 mi SW 29.9 mph - N/A   Mostly Cloudy
7:50 AM 50.0 °F - 48.2 °F 94% 29.21 in 6.2 mi SW 29.9 mph - N/A   Scattered Clouds
8:20 AM 50.0 °F - 48.2 °F 94% 29.21 in 6.2 mi SW 27.6 mph - N/A   Scattered Clouds
8:50 AM 51 °F - 48 °F 86% 29.22 in 7 mi SW 25.3 mph - -   Mostly Cloudy
8:50 AM 50.0 °F - 48.2 °F 94% 29.21 in 6.2 mi SW 25.3 mph - N/A   Mostly Cloudy
9:20 AM 51.8 °F - 46.4 °F 82% 29.21 in 6.2 mi SW 25.3 mph - N/A   Mostly Cloudy
9:50 AM 51.8 °F - 44.6 °F 76% 29.24 in 6.2 mi WSW 27.6 mph 40.3 mph N/A   Mostly Cloudy
10:20 AM 50.0 °F - 41.0 °F 71% 29.24 in 6.2 mi West 26.5 mph 39.1 mph N/A   Mostly Cloudy
10:50 AM 50.0 °F - 41.0 °F 71% 29.27 in 6.2 mi West 24.2 mph 39.1 mph N/A   Scattered Clouds
11:20 AM 48.2 °F - 41.0 °F 76% 29.27 in 6.2 mi WSW 20.7 mph - N/A   Partly Cloudy
11:50 AM 48 °F - 42 °F 72% 29.30 in 12 mi West 18.4 mph - -   Partly Cloudy
11:50 AM 48.2 °F - 41.0 °F 76% 29.30 in 6.2 mi West 18.4 mph 29.9 mph N/A   Scattered Clouds
12:20 PM 48.2 °F - 41.0 °F 76% 29.27 in 6.2 mi West 19.6 mph - N/A   Partly Cloudy
12:50 PM 48.2 °F - 41.0 °F 76% 29.27 in 6.2 mi West 17.3 mph - N/A Rain Light Rain Showers
1:20 PM 48.2 °F - 41.0 °F 76% 29.27 in 6.2 mi West 18.4 mph - N/A   Scattered Clouds
1:50 PM 46.4 °F 41.1 °F 41.0 °F 81% 29.30 in 5.0 mi West 11.5 mph - N/A Rain Rain Showers
2:20 PM 44.6 °F 38.1 °F 41.0 °F 87% 29.30 in 6.2 mi West 13.8 mph - N/A   Scattered Clouds
2:50 PM 46 °F - 41 °F 75% 29.31 in 16 mi West 13.8 mph - - Rain Light Rain Showers
2:50 PM 46.4 °F 40.4 °F 41.0 °F 81% 29.30 in 6.2 mi West 13.8 mph - N/A Rain Light Rain Showers
3:20 PM 46.4 °F 41.1 °F 39.2 °F 76% 29.30 in 6.2 mi West 11.5 mph - N/A   Partly Cloudy
3:50 PM 46.4 °F 41.1 °F 39.2 °F 76% 29.33 in 6.2 mi West 11.5 mph - N/A Rain Light Rain Showers
4:20 PM 44.6 °F 39.2 °F 37.4 °F 76% 29.33 in 6.2 mi West 10.4 mph - N/A   Scattered Clouds
4:50 PM 44.6 °F 37.4 °F 37.4 °F 76% 29.33 in 6.2 mi West 16.1 mph - N/A Rain Light Rain Showers
5:20 PM 42.8 °F 38.0 °F 37.4 °F 81% 29.36 in 6.2 mi West 8.1 mph - N/A   Partly Cloudy
5:50 PM 44 °F - 38 °F 71% 29.37 in 19 mi West 12.7 mph - - Rain Light Rain Showers
5:50 PM 44.6 °F 38.4 °F 37.4 °F 76% 29.36 in 6.2 mi West 12.7 mph - N/A   Scattered Clouds
6:20 PM 44.6 °F 38.1 °F 37.4 °F 76% 29.36 in 6.2 mi West 13.8 mph - N/A   Scattered Clouds
6:50 PM 44.6 °F 37.4 °F 35.6 °F 71% 29.36 in 6.2 mi West 16.1 mph - N/A   Scattered Clouds
7:50 PM 44.6 °F 37.2 °F 35.6 °F 71% 29.39 in 6.2 mi West 17.3 mph - N/A   Scattered Clouds
8:50 PM 43 °F - 35 °F 65% 29.41 in 19 mi West 16.1 mph - -   Partly Cloudy
8:50 PM 42.8 °F 35.1 °F 35.6 °F 76% 29.39 in 6.2 mi West 16.1 mph - N/A   Scattered Clouds
9:50 PM 42.8 °F 34.8 °F 35.6 °F 76% 29.42 in 6.2 mi West 17.3 mph - N/A   Scattered Clouds
10:50 PM 42.8 °F 34.5 °F 35.6 °F 76% 29.42 in 6.2 mi West 18.4 mph 31.1 mph N/A   Partly Cloudy
11:50 PM 42 °F - 35 °F 68% 29.44 in - West 19.6 mph - -